When you browse on this site, cookies collect data to enhance your experience and personalize the content and advertising you see.
Visit our Privacy Policy to learn more. By continuing to use the site, you agree to this use of cookies and data.
  • en Suisse
  • Liste des pays
  • À 7 jours
  • Température de l'eau
  • Carte satellitaire
  • Carte météo
  • Widgets météo
  • user-avatar
    Se connecter

    Météo par heure à Megri

    Ce jour, 26 Avril, Vendredi

    Heure Température Précipitation Vent Pression Humidité
    00:00 +2°C° 0 mm 2 m/s 624 mmHg 86%
    01:00 +1°C° 0 mm 2 m/s 624 mmHg 86%
    02:00 +1°C° 0 mm 2 m/s 624 mmHg 86%
    03:00 +1°C° 0 mm 2 m/s 624 mmHg 86%
    04:00 +1°C° 0 mm 2 m/s 624 mmHg 83%
    05:00 +1°C° 0 mm 2 m/s 624 mmHg 80%
    06:00 +1°C° 0 mm 2 m/s 624 mmHg 78%
    07:00 +3°C° 0 mm 2 m/s 625 mmHg 66%
    08:00 +4°C° 0 mm 2 m/s 625 mmHg 55%
    09:00 +6°C° 0 mm 2 m/s 625 mmHg 43%
    10:00 +7°C° 0 mm 2 m/s 625 mmHg 41%
    11:00 +8°C° 0 mm 3 m/s 625 mmHg 38%
    12:00 +9°C° 0 mm 3 m/s 625 mmHg 36%
    13:00 +9°C° 0 mm 3 m/s 625 mmHg 36%
    14:00 +10°C° 0 mm 3 m/s 625 mmHg 37%
    15:00 +10°C° 0 mm 3 m/s 625 mmHg 37%
    16:00 +9°C° 0 mm 3 m/s 625 mmHg 42%
    17:00 +8°C° 0 mm 3 m/s 624 mmHg 46%
    18:00 +8°C° 0 mm 3 m/s 624 mmHg 51%
    19:00 +7°C° 0 mm 2 m/s 624 mmHg 57%
    20:00 +6°C° 0 mm 2 m/s 624 mmHg 63%
    21:00 +5°C° 0 mm 2 m/s 624 mmHg 69%
    22:00 +4°C° 0 mm 2 m/s 624 mmHg 73%
    23:00 +4°C° 0 mm 2 m/s 623 mmHg 76%

    Demain, 27 Avril, Samedi

    Heure Température Précipitation Vent Pression Humidité
    00:00 +3°C° 0 mm 2 m/s 623 mmHg 79%
    01:00 +3°C° 0 mm 2 m/s 623 mmHg 79%
    02:00 +4°C° 0 mm 1 m/s 623 mmHg 79%
    03:00 +4°C° 0 mm 1 m/s 623 mmHg 79%
    04:00 +4°C° 0 mm 1 m/s 623 mmHg 77%
    05:00 +4°C° 0 mm 1 m/s 623 mmHg 75%
    06:00 +5°C° 0 mm 1 m/s 623 mmHg 72%
    07:00 +6°C° 0 mm 1 m/s 624 mmHg 62%
    08:00 +8°C° 0 mm 1 m/s 624 mmHg 52%
    09:00 +9°C° 0 mm 1 m/s 625 mmHg 41%
    10:00 +10°C° 0 mm 1 m/s 625 mmHg 39%
    11:00 +11°C° 0 mm 1 m/s 625 mmHg 37%
    12:00 +12°C° 0 mm 1 m/s 625 mmHg 34%
    13:00 +13°C° 0 mm 1 m/s 625 mmHg 33%
    14:00 +13°C° 0 mm 2 m/s 624 mmHg 33%
    15:00 +14°C° 0 mm 2 m/s 624 mmHg 32%
    16:00 +13°C° 0 mm 2 m/s 624 mmHg 34%
    17:00 +12°C° 0 mm 2 m/s 623 mmHg 37%
    18:00 +12°C° 0 mm 1 m/s 623 mmHg 39%
    19:00 +10°C° 0 mm 1 m/s 623 mmHg 44%
    20:00 +9°C° 0 mm 1 m/s 622 mmHg 49%
    21:00 +8°C° 0 mm 1 m/s 622 mmHg 54%
    22:00 +7°C° 0 mm 1 m/s 622 mmHg 54%
    23:00 +7°C° 0 mm 1 m/s 622 mmHg 53%

    Après-demain, 28 Avril, Dimanche

    Heure Température Précipitation Vent Pression Humidité
    00:00 +6°C° 0 mm 1 m/s 621 mmHg 53%
    01:00 +6°C° 0 mm 1 m/s 621 mmHg 51%
    02:00 +6°C° 0 mm 1 m/s 621 mmHg 49%
    03:00 +6°C° 0 mm 1 m/s 621 mmHg 47%
    04:00 +6°C° 0 mm 1 m/s 621 mmHg 47%
    05:00 +7°C° 0 mm 1 m/s 621 mmHg 47%
    06:00 +7°C° 0 mm 1 m/s 621 mmHg 47%
    07:00 +9°C° 0 mm 1 m/s 621 mmHg 44%
    08:00 +9°C° 0 mm 2 m/s 622 mmHg 40%
    09:00 +12°C° 0 mm 2 m/s 623 mmHg 37%
    10:00 +12°C° 0 mm 3 m/s 623 mmHg 36%
    11:00 +13°C° 0 mm 3 m/s 623 mmHg 35%
    12:00 +14°C° 0 mm 3 m/s 623 mmHg 34%
    13:00 +14°C° 0 mm 4 m/s 622 mmHg 34%
    14:00 +14°C° 0 mm 4 m/s 622 mmHg 34%
    15:00 +14°C° 0 mm 4 m/s 622 mmHg 33%
    16:00 +13°C° 0 mm 3 m/s 622 mmHg 36%
    17:00 +13°C° 0 mm 3 m/s 621 mmHg 39%
    18:00 +13°C° 0 mm 2 m/s 621 mmHg 42%
    19:00 +12°C° 0 mm 2 m/s 621 mmHg 46%
    20:00 +11°C° 0 mm 1 m/s 621 mmHg 50%
    21:00 +10°C° 0 mm 1 m/s 621 mmHg 54%
    22:00 +9°C° 0 mm 1 m/s 621 mmHg 55%
    23:00 +9°C° 0 mm 1 m/s 621 mmHg 56%

    29 Avril, Lundi

    Heure Température Précipitation Vent Pression Humidité
    00:00 +8°C° 0 mm 1 m/s 621 mmHg 57%
    01:00 +8°C° 0 mm 1 m/s 621 mmHg 58%
    02:00 +8°C° 0 mm 1 m/s 620 mmHg 59%
    03:00 +7°C° 0 mm 1 m/s 620 mmHg 60%
    04:00 +8°C° 0 mm 1 m/s 620 mmHg 61%
    05:00 +8°C° 0 mm 1 m/s 621 mmHg 61%
    06:00 +9°C° 0 mm 1 m/s 621 mmHg 61%
    07:00 +9°C° 0 mm 2 m/s 622 mmHg 56%
    08:00 +11°C° 0 mm 3 m/s 623 mmHg 50%
    09:00 +13°C° 0 mm 3 m/s 623 mmHg 45%
    10:00 +14°C° 0 mm 4 m/s 623 mmHg 42%
    11:00 +15°C° 0 mm 4 m/s 623 mmHg 40%
    12:00 +16°C° 0 mm 5 m/s 624 mmHg 37%
    13:00 +17°C° 0.1 mm 4 m/s 623 mmHg 37%
    14:00 +17°C° 0.1 mm 4 m/s 623 mmHg 36%
    15:00 +17°C° 0.1 mm 4 m/s 622 mmHg 36%
    16:00 +17°C° 0.4 mm 3 m/s 622 mmHg 39%
    17:00 +16°C° 0.4 mm 3 m/s 622 mmHg 43%
    18:00 +15°C° 0.4 mm 2 m/s 622 mmHg 46%
    19:00 +14°C° 0.4 mm 2 m/s 622 mmHg 50%
    20:00 +13°C° 0.4 mm 1 m/s 622 mmHg 55%
    21:00 +12°C° 0.4 mm 1 m/s 622 mmHg 59%
    22:00 +12°C° 0.1 mm 1 m/s 622 mmHg 60%
    23:00 +11°C° 0.1 mm 1 m/s 622 mmHg 61%

    30 Avril, Mardi

    Heure Température Précipitation Vent Pression Humidité
    00:00 +11°C° 0.1 mm 1 m/s 621 mmHg 62%
    01:00 +10°C° 0 mm 1 m/s 621 mmHg 64%
    02:00 +10°C° 0 mm 1 m/s 621 mmHg 67%
    03:00 +9°C° 0 mm 1 m/s 621 mmHg 69%
    04:00 +9°C° 0 mm 1 m/s 621 mmHg 69%
    05:00 +10°C° 0 mm 1 m/s 621 mmHg 69%
    06:00 +10°C° 0 mm 1 m/s 622 mmHg 69%
    07:00 +12°C° 0 mm 2 m/s 622 mmHg 61%
    08:00 +12°C° 0 mm 3 m/s 623 mmHg 53%
    09:00 +14°C° 0 mm 3 m/s 623 mmHg 45%
    10:00 +15°C° 0 mm 4 m/s 623 mmHg 41%
    11:00 +16°C° 0 mm 5 m/s 623 mmHg 37%
    12:00 +17°C° 0 mm 6 m/s 623 mmHg 32%
    13:00 +17°C° 0.1 mm 5 m/s 623 mmHg 33%
    14:00 +17°C° 0.1 mm 5 m/s 623 mmHg 34%
    15:00 +18°C° 0.1 mm 4 m/s 622 mmHg 34%
    16:00 +17°C° 0.1 mm 3 m/s 622 mmHg 36%
    17:00 +17°C° 0.1 mm 3 m/s 622 mmHg 38%
    18:00 +16°C° 0.1 mm 2 m/s 622 mmHg 40%
    19:00 +15°C° 0.1 mm 1 m/s 622 mmHg 44%
    20:00 +13°C° 0.1 mm 1 m/s 622 mmHg 48%
    21:00 +12°C° 0.1 mm 1 m/s 622 mmHg 52%
    22:00 +11°C° 0 mm 1 m/s 621 mmHg 53%
    23:00 +11°C° 0 mm 1 m/s 621 mmHg 54%

    1 Mai, Mercredi

    Heure Température Précipitation Vent Pression Humidité
    00:00 +10°C° 0 mm 1 m/s 621 mmHg 56%
    01:00 +10°C° 0 mm 1 m/s 620 mmHg 58%
    02:00 +9°C° 0 mm 1 m/s 620 mmHg 60%
    03:00 +9°C° 0 mm 1 m/s 620 mmHg 62%
    04:00 +9°C° 0 mm 1 m/s 620 mmHg 62%
    05:00 +10°C° 0 mm 1 m/s 620 mmHg 62%
    06:00 +10°C° 0 mm 1 m/s 621 mmHg 62%
    07:00 +12°C° 0 mm 1 m/s 621 mmHg 54%
    08:00 +14°C° 0 mm 2 m/s 622 mmHg 45%
    09:00 +16°C° 0 mm 2 m/s 623 mmHg 36%
    10:00 +17°C° 0 mm 2 m/s 623 mmHg 34%
    11:00 +18°C° 0 mm 3 m/s 622 mmHg 31%
    12:00 +19°C° 0 mm 3 m/s 622 mmHg 29%
    13:00 +19°C° 0 mm 3 m/s 622 mmHg 28%
    14:00 +20°C° 0 mm 3 m/s 622 mmHg 26%
    15:00 +20°C° 0 mm 3 m/s 621 mmHg 25%
    16:00 +19°C° 0 mm 3 m/s 621 mmHg 27%
    17:00 +19°C° 0 mm 2 m/s 621 mmHg 29%
    18:00 +18°C° 0 mm 2 m/s 621 mmHg 31%
    19:00 +18°C° 0 mm 1 m/s 621 mmHg 34%
    20:00 +16°C° 0 mm 1 m/s 621 mmHg 37%
    21:00 +15°C° 0 mm 1 m/s 620 mmHg 40%
    22:00 +14°C° 0 mm 1 m/s 620 mmHg 42%
    23:00 +13°C° 0 mm 1 m/s 620 mmHg 44%
    Voir plus